Corinth, MS

2:19 AM CDT on August 27, 2016 (GMT -0500)
Turner

Weather History for KCRX - October, 2012

Change the Weather History Date:

Monday, October 8, 2012

  Actual Average Record
Temperature  
Mean Temperature 50 °F -  
Max Temperature 59 °F 76 °F 91 °F (1939)
Min Temperature 41 °F 50 °F 31 °F (1978)
Degree Days  
Heating Degree Days 15    
Moisture  
Dew Point 42 °F    
Average Humidity 77    
Maximum Humidity 100    
Minimum Humidity 45    
Precipitation  
Precipitation 0.15 in - - ()
Sea Level Pressure  
Sea Level Pressure 30.19 in    
Wind  
Wind Speed 2 mph (North)    
Max Wind Speed 8 mph    
Max Gust Speed -    
Visibility 10 miles    
Events Rain    
Averages and records for this station are not official NWS values.
T = Trace of Precipitation, MM = Missing Value Source: NWS Daily Summary

Daily Weather History Graph

Daily Weather History Graph

Search for Another Location

Airport or City:

Trip Planner

Search our weather history database for the weather conditions in past years. The results will help you decide how hot, cold, wet, or windy it might be!

Date:

Astronomy

Oct. 08, 2012 Rise Set
Actual Time 6:54 AM CDT 6:28 PM CDT
Civil Twilight 6:29 AM CDT 6:53 PM CDT
Nautical Twilight 6:00 AM CDT 7:22 PM CDT
Astronomical Twilight 5:31 AM CDT 7:51 PM CDT
Moon No Moon Rise 2:03 PM CDT (10/8)
Length of Visible Light 12h 23m
Length of Day
11h 33m
Last Quarter, 46% of the Moon is Illuminated
Oct 8
Last Quarter
Oct 15
New
Oct 21
First Quarter
Oct 29
Full
Nov 6
Last Quarter

Hourly Weather History & Observations

Time (CDT) Temp. Windchill Dew Point Humidity Pressure Visibility Wind Dir Wind Speed Gust Speed Precip Events Conditions
12:05 AM 48.2 °F - 44.6 °F 87% 30.17 in 10.0 mi Calm Calm - N/A Rain Light Rain
12:25 AM 48.2 °F - 44.6 °F 87% 30.18 in 10.0 mi Calm Calm - 0.01 in Rain Light Rain
12:45 AM 48.2 °F - 44.6 °F 87% 30.19 in 9.0 mi WNW 4.6 mph - 0.01 in Rain Light Rain
1:05 AM 48.2 °F - 46.4 °F 93% 30.17 in 10.0 mi Calm Calm - 0.01 in Rain Light Rain
1:25 AM 48.2 °F - 46.4 °F 93% 30.18 in 10.0 mi Calm Calm - 0.01 in   Overcast
1:45 AM 48.2 °F - 46.4 °F 93% 30.19 in 10.0 mi Calm Calm - 0.01 in Rain Light Rain
2:05 AM 48.2 °F - 46.4 °F 93% 30.19 in 10.0 mi Calm Calm - N/A Rain Light Rain
2:25 AM 48.2 °F - 44.6 °F 87% 30.19 in 9.0 mi North 3.5 mph - 0.01 in Rain Light Rain
2:45 AM 48.2 °F - 44.6 °F 87% 30.19 in 8.0 mi Calm Calm - 0.02 in Rain Light Rain
3:05 AM 48.2 °F - 44.6 °F 87% 30.20 in 7.0 mi WNW 3.5 mph - 0.01 in Rain Light Rain
3:25 AM 48.2 °F - 44.6 °F 87% 30.20 in 8.0 mi Calm Calm - 0.02 in Rain Light Rain
3:45 AM 48.2 °F - 44.6 °F 87% 30.20 in 7.0 mi Calm Calm - 0.06 in Rain Light Rain
4:05 AM 46.4 °F 45.2 °F 44.6 °F 93% 30.19 in 7.0 mi ENE 3.5 mph - 0.01 in Rain Light Rain
4:25 AM 46.4 °F 45.2 °F 44.6 °F 93% 30.18 in 7.0 mi NE 3.5 mph - 0.04 in Rain Light Rain
4:45 AM 46.4 °F 45.2 °F 44.6 °F 93% 30.20 in 9.0 mi NW 3.5 mph - 0.06 in Rain Light Rain
5:05 AM 46.4 °F - 44.6 °F 93% 30.20 in 10.0 mi Calm Calm - N/A Rain Light Rain
5:25 AM 46.4 °F - 44.6 °F 93% 30.20 in 10.0 mi Calm Calm - N/A   Overcast
5:45 AM 46.4 °F - 44.6 °F 93% 30.20 in 10.0 mi Calm Calm - N/A   Overcast
6:05 AM 46.4 °F - 44.6 °F 93% 30.21 in 10.0 mi Calm Calm - N/A   Overcast
6:25 AM 46.4 °F 44.3 °F 44.6 °F 93% 30.21 in 10.0 mi NW 4.6 mph - N/A   Overcast
6:45 AM 46.4 °F 43.5 °F 44.6 °F 93% 30.22 in 10.0 mi NW 5.8 mph - N/A   Overcast
7:05 AM 46.4 °F 45.2 °F 44.6 °F 93% 30.23 in 10.0 mi North 3.5 mph - N/A   Overcast
7:25 AM 46.4 °F - 44.6 °F 93% 30.23 in 10.0 mi Calm Calm - N/A   Overcast
7:45 AM 46.4 °F 45.2 °F 44.6 °F 93% 30.23 in 10.0 mi NNE 3.5 mph - N/A   Overcast
8:05 AM 48.2 °F - 44.6 °F 87% 30.23 in 10.0 mi NNE 3.5 mph - N/A   Overcast
8:25 AM 48.2 °F - 44.6 °F 87% 30.23 in 10.0 mi NNE 3.5 mph - N/A   Overcast
8:45 AM 48.2 °F - 44.6 °F 87% 30.23 in 10.0 mi North 5.8 mph - N/A   Overcast
9:05 AM 50.0 °F - 44.6 °F 82% 30.24 in 10.0 mi NNE 3.5 mph - N/A   Overcast
9:25 AM 50.0 °F - 44.6 °F 82% 30.24 in 10.0 mi Calm Calm - N/A   Overcast
9:45 AM 50.0 °F - 42.8 °F 76% 30.24 in 10.0 mi Calm Calm - N/A   Overcast
10:05 AM 51.8 °F - 44.6 °F 76% 30.24 in 10.0 mi Calm Calm - N/A   Overcast
10:25 AM 53.6 °F - 41.0 °F 62% 30.24 in 10.0 mi Calm Calm - N/A   Overcast
10:45 AM 53.6 °F - 41.0 °F 62% 30.24 in 10.0 mi NW 4.6 mph - N/A   Overcast
11:05 AM 53.6 °F - 42.8 °F 67% 30.24 in 10.0 mi North 6.9 mph - N/A   Mostly Cloudy
11:25 AM 53.6 °F - 41.0 °F 62% 30.24 in 10.0 mi NNW 5.8 mph - N/A   Overcast
11:45 AM 55.4 °F - 41.0 °F 58% 30.24 in 10.0 mi NNW 5.8 mph - N/A   Overcast
12:05 PM 55.4 °F - 41.0 °F 58% 30.23 in 10.0 mi North 4.6 mph - N/A   Overcast
12:25 PM 55.4 °F - 41.0 °F 58% 30.22 in 10.0 mi NE 6.9 mph - N/A   Overcast
12:45 PM 55.4 °F - 39.2 °F 54% 30.21 in 10.0 mi NE 8.1 mph - N/A   Mostly Cloudy
1:05 PM 57.2 °F - 39.2 °F 51% 30.20 in 10.0 mi East 6.9 mph - N/A   Partly Cloudy
1:25 PM 57.2 °F - 39.2 °F 51% 30.20 in 10.0 mi NNE 3.5 mph - N/A   Mostly Cloudy
1:45 PM 59.0 °F - 39.2 °F 48% 30.19 in 10.0 mi NNE 5.8 mph - N/A   Scattered Clouds
2:05 PM 57.2 °F - 37.4 °F 48% 30.18 in 10.0 mi Calm Calm - N/A   Partly Cloudy
2:25 PM 59.0 °F - 37.4 °F 45% 30.17 in 10.0 mi Calm Calm - N/A   Scattered Clouds
3:05 PM 59.0 °F - 37.4 °F 45% 30.16 in 10.0 mi Calm Calm - N/A   Mostly Cloudy
3:25 PM 57.2 °F - 37.4 °F 48% 30.16 in 10.0 mi North 3.5 mph - N/A   Mostly Cloudy
3:45 PM 59.0 °F - 37.4 °F 45% 30.15 in 10.0 mi NE 3.5 mph - N/A   Mostly Cloudy
4:05 PM 57.2 °F - 37.4 °F 48% 30.15 in 10.0 mi NE 3.5 mph - N/A   Mostly Cloudy
4:25 PM 59.0 °F - 37.4 °F 45% 30.15 in 10.0 mi Calm Calm - N/A   Clear
4:45 PM 59.0 °F - 37.4 °F 45% 30.15 in 10.0 mi NNE 4.6 mph - N/A   Partly Cloudy
5:05 PM 59.0 °F - 39.2 °F 48% 30.15 in 10.0 mi NNE 4.6 mph - N/A   Partly Cloudy
5:25 PM 57.2 °F - 39.2 °F 51% 30.14 in 10.0 mi NNE 3.5 mph - N/A   Clear
5:45 PM 57.2 °F - 37.4 °F 48% 30.14 in 10.0 mi North 3.5 mph - N/A   Clear
6:05 PM 55.4 °F - 39.2 °F 54% 30.14 in 10.0 mi Calm Calm - N/A   Clear
6:25 PM 53.6 °F - 41.0 °F 62% 30.14 in 10.0 mi West 3.5 mph - N/A   Scattered Clouds
6:45 PM 50.0 °F - 42.8 °F 76% 30.14 in 10.0 mi Calm Calm - N/A   Scattered Clouds
7:05 PM 50.0 °F - 44.6 °F 82% 30.14 in 10.0 mi Calm Calm - N/A   Clear
7:25 PM 48.2 °F - 44.6 °F 87% 30.14 in 10.0 mi Calm Calm - N/A   Clear
8:05 PM 46.4 °F - 44.6 °F 93% 30.16 in 10.0 mi Calm Calm - N/A   Clear
8:25 PM 46.4 °F - 42.8 °F 87% 30.15 in 10.0 mi Calm Calm - N/A   Clear
9:05 PM 44.6 °F - 42.8 °F 93% 30.16 in 10.0 mi Calm Calm - N/A   Clear
9:25 PM 44.6 °F - 41.0 °F 87% 30.17 in 7.0 mi Calm Calm - N/A   Clear
9:45 PM 44.6 °F - 41.0 °F 87% 30.17 in 5.0 mi Calm Calm - N/A   Clear
10:05 PM 42.8 °F - 41.0 °F 93% 30.17 in 9.0 mi Calm Calm - N/A   Clear
10:25 PM 41.0 °F - 41.0 °F 100% 30.17 in 10.0 mi Calm Calm - N/A   Clear
10:45 PM 41.0 °F - 41.0 °F 100% 30.17 in 10.0 mi Calm Calm - N/A   Clear
11:05 PM 41.0 °F - 39.2 °F 93% 30.17 in 10.0 mi Calm Calm - N/A   Clear
11:25 PM 41.0 °F - 39.2 °F 93% 30.16 in 10.0 mi Calm Calm - N/A   Clear
11:45 PM 41.0 °F - 39.2 °F 93% 30.16 in 10.0 mi Calm Calm - N/A   Clear